Weather History for Mandan, ND

Change the Weather History Date:

Friday, August 22, 2014

  Actual Average (KBIS) Record (KBIS)
Temperature  
Mean Temperature 70 °F 68 °F  
Max Temperature 75 °F 82 °F 106 °F (1960)
Min Temperature 64 °F 54 °F 35 °F (1908)
Degree Days  
Heating Degree Days 0 1  
Month to date heating degree days 19  
Since 1 June heating degree days 129  
Since 1 July heating degree days 36  
Cooling Degree Days 4 5  
Month to date cooling degree days 140  
Year to date cooling degree days 444  
Since 1 June cooling degree days 427  
Growing Degree Days 20 (Base 50)    
Moisture  
Dew Point 64 °F    
Average Humidity 90    
Maximum Humidity 100    
Minimum Humidity 73    
Precipitation  
Precipitation 0.02 in 0.07 in 1.40 in (1876)
Month to date precipitation 1.67  
Year to date precipitation 13.20  
Snow  
Snow 0.00 in 0.00 in 0.00 in (2002)
Month to date snowfall 0.0  
Since 1 June snowfall 0.0  
Since 1 July snowfall 0.0  
Snow Depth -    
Sea Level Pressure  
Sea Level Pressure 30.05 in    
Wind  
Wind Speed 6 mph (NE)    
Max Wind Speed 14 mph    
Max Gust Speed 20 mph    
Visibility 8 miles    
Events Rain    
T = Trace of Precipitation, MM = Missing Value Source: NWS Daily Summary

Daily Weather History Graph

Daily Weather History Graph

Search for Another Location

Airport:

Trip Planner

Search our weather history database for the weather conditions in past years. The results will help you decide how hot, cold, wet, or windy it might be!

Date:

Astronomy

Aug. 22, 2014 Rise Set
Actual Time 6:50 AM CDT 8:41 PM CDT
Civil Twilight 6:18 AM CDT 9:13 PM CDT
Nautical Twilight 5:38 AM CDT 9:53 PM CDT
Astronomical Twilight 4:54 AM CDT 10:36 PM CDT
Moon 4:10 AM CDT (8/22) 6:54 PM CDT (8/22)
Length of Visible Light 14h 55m
Length of Day
13h 51m
Waning Crescent, 7% of the Moon is Illuminated
Aug 22
Waning Crescent
Aug 25
New
Sep 2
First Quarter
Sep 8
Full
Sep 15
Last Quarter

Hourly Weather History & Observations

Time (CDT) Temp. Dew Point Humidity Pressure Visibility Wind Dir Wind Speed Gust Speed Precip Events Conditions
12:15 AM 64.4 °F 60.8 °F 88% 29.97 in 10.0 mi NNW 6.9 mph - N/A   Clear
12:35 AM 64.4 °F 60.8 °F 88% 29.98 in 10.0 mi North 6.9 mph - N/A   Clear
12:55 AM 64.4 °F 62.6 °F 94% 29.98 in 10.0 mi North 6.9 mph - N/A   Clear
1:35 AM 64.4 °F 62.6 °F 94% 29.99 in 10.0 mi NNW 5.8 mph - N/A   Partly Cloudy
1:55 AM 64.4 °F 62.6 °F 94% 30.00 in 9.0 mi NW 5.8 mph - N/A Rain Light Rain
2:15 AM 64.4 °F 62.6 °F 94% 30.00 in 6.0 mi NW 6.9 mph - N/A Rain Light Rain
2:35 AM 64.4 °F 62.6 °F 94% 30.01 in 5.0 mi NW 6.9 mph - N/A Rain Light Rain
2:55 AM 64.4 °F 64.4 °F 100% 30.01 in 4.0 mi NNW 6.9 mph - 0.02 in Rain Light Rain
3:15 AM 64.4 °F 64.4 °F 100% 30.01 in 3.0 mi North 4.6 mph - N/A Rain Light Rain
3:35 AM 64.4 °F 62.6 °F 94% 30.02 in 5.0 mi NNE 3.5 mph - N/A Rain Light Rain
3:55 AM 64.4 °F 64.4 °F 100% 30.03 in 5.0 mi Calm Calm - N/A   Mostly Cloudy
4:15 AM 64.4 °F 64.4 °F 100% 30.04 in 3.0 mi West 3.5 mph - N/A Rain Light Rain
4:35 AM 64.4 °F 64.4 °F 100% 30.04 in 3.0 mi Calm Calm - N/A Rain Light Rain
4:55 AM 64.4 °F 64.4 °F 100% 30.03 in 3.0 mi Calm Calm - N/A   Mostly Cloudy
5:15 AM 64.4 °F 64.4 °F 100% 30.02 in 3.0 mi NNE 3.5 mph - N/A Rain Light Rain
5:35 AM 64.4 °F 64.4 °F 100% 30.02 in 1.2 mi ENE 3.5 mph - N/A   Overcast
5:55 AM 64.4 °F 64.4 °F 100% 30.02 in 1.8 mi NE 5.8 mph - N/A Rain Light Rain
6:15 AM 64.4 °F 64.4 °F 100% 30.02 in 2.0 mi NNE 4.6 mph - N/A   Overcast
6:35 AM 64.4 °F 64.4 °F 100% 30.02 in 3.0 mi NNE 4.6 mph - N/A   Overcast
6:55 AM 64.4 °F 64.4 °F 100% 30.02 in 3.0 mi NE 6.9 mph - N/A   Overcast
7:15 AM 64.4 °F 64.4 °F 100% 30.01 in 0.8 mi NE 8.1 mph - N/A   Overcast
7:35 AM 64.4 °F 64.4 °F 100% 30.02 in 2.5 mi ENE 3.5 mph - N/A   Overcast
7:55 AM 64.4 °F 64.4 °F 100% 30.04 in 4.0 mi Calm Calm - N/A   Overcast
8:15 AM 64.4 °F 64.4 °F 100% 30.05 in 4.0 mi NNW 4.6 mph - N/A   Overcast
8:35 AM 64.4 °F 64.4 °F 100% 30.06 in 4.0 mi NW 4.6 mph - N/A   Overcast
8:55 AM 64.4 °F 64.4 °F 100% 30.06 in 3.0 mi NNW 3.5 mph - N/A   Overcast
9:15 AM 64.4 °F 64.4 °F 100% 30.05 in 4.0 mi NNW 4.6 mph - N/A   Overcast
9:35 AM 66.2 °F 64.4 °F 94% 30.06 in 8.0 mi Calm Calm - N/A   Overcast
9:55 AM 66.2 °F 64.4 °F 94% 30.06 in 10.0 mi Calm Calm - N/A   Overcast
10:15 AM 66.2 °F 64.4 °F 94% 30.06 in 10.0 mi Calm Calm - N/A   Overcast
10:35 AM 68.0 °F 64.4 °F 88% 30.06 in 10.0 mi Calm Calm - N/A   Overcast
10:55 AM 66.2 °F 64.4 °F 94% 30.06 in 10.0 mi East 3.5 mph - N/A   Overcast
11:15 AM 69.8 °F 64.4 °F 83% 30.06 in 10.0 mi NE 4.6 mph - N/A   Mostly Cloudy
11:35 AM 71.6 °F 62.6 °F 73% 30.06 in 10.0 mi Calm Calm - N/A   Partly Cloudy
11:55 AM 69.8 °F 62.6 °F 78% 30.06 in 10.0 mi Calm Calm - N/A   Mostly Cloudy
12:15 PM 71.6 °F 64.4 °F 78% 30.06 in 10.0 mi Calm Calm - N/A   Overcast
12:35 PM 73.4 °F 64.4 °F 73% 30.06 in 10.0 mi Calm Calm - N/A   Overcast
12:55 PM 73.4 °F 64.4 °F 73% 30.06 in 10.0 mi ENE 4.6 mph - N/A   Overcast
1:15 PM 73.4 °F 64.4 °F 73% 30.06 in 10.0 mi NW 4.6 mph - N/A   Overcast
1:35 PM 71.6 °F 64.4 °F 78% 30.06 in 10.0 mi North 5.8 mph - N/A   Overcast
1:55 PM 71.6 °F 64.4 °F 78% 30.06 in 10.0 mi North 5.8 mph - N/A   Overcast
2:15 PM 71.6 °F 64.4 °F 78% 30.06 in 10.0 mi North 8.1 mph - N/A   Overcast
2:35 PM 71.6 °F 64.4 °F 78% 30.05 in 10.0 mi NNE 11.5 mph - N/A   Mostly Cloudy
2:55 PM 73.4 °F 64.4 °F 73% 30.06 in 10.0 mi NE 9.2 mph - N/A   Mostly Cloudy
3:15 PM 73.4 °F 64.4 °F 73% 30.05 in 10.0 mi NNE 9.2 mph - N/A   Mostly Cloudy
3:35 PM 75.2 °F 66.2 °F 73% 30.05 in 10.0 mi NNE 10.4 mph - N/A   Scattered Clouds
3:55 PM 73.4 °F 64.4 °F 73% 30.05 in 10.0 mi NE 8.1 mph - N/A   Mostly Cloudy
4:15 PM 71.6 °F 64.4 °F 78% 30.05 in 10.0 mi ENE 9.2 mph - N/A   Overcast
4:35 PM 71.6 °F 64.4 °F 78% 30.05 in 10.0 mi ENE 11.5 mph - N/A   Mostly Cloudy
4:55 PM 71.6 °F 64.4 °F 78% 30.06 in 10.0 mi ENE 11.5 mph - N/A   Overcast
5:15 PM 69.8 °F 64.4 °F 83% 30.07 in 10.0 mi ENE 10.4 mph - N/A   Overcast
5:35 PM 69.8 °F 64.4 °F 83% 30.07 in 10.0 mi ENE 9.2 mph - N/A   Mostly Cloudy
5:55 PM 69.8 °F 64.4 °F 83% 30.07 in 10.0 mi ENE 11.5 mph - N/A   Overcast
6:15 PM 68.0 °F 64.4 °F 88% 30.07 in 10.0 mi East 13.8 mph - N/A   Mostly Cloudy
6:35 PM 68.0 °F 62.6 °F 83% 30.07 in 10.0 mi ENE 13.8 mph - N/A   Overcast
6:55 PM 68.0 °F 62.6 °F 83% 30.07 in 10.0 mi ENE 11.5 mph - N/A   Overcast
7:15 PM 66.2 °F 64.4 °F 94% 30.07 in 7.0 mi ENE 11.5 mph - N/A   Overcast
7:35 PM 66.2 °F 64.4 °F 94% 30.07 in 10.0 mi ENE 10.4 mph 16.1 mph N/A   Overcast
7:55 PM 66.2 °F 64.4 °F 94% 30.06 in 10.0 mi ENE 10.4 mph - N/A   Overcast
8:15 PM 66.2 °F 64.4 °F 94% 30.08 in 10.0 mi ENE 8.1 mph - N/A   Overcast
8:55 PM 66.2 °F 64.4 °F 94% 30.08 in 10.0 mi ENE 9.2 mph - N/A   Overcast
9:15 PM 66.2 °F 64.4 °F 94% 30.08 in 10.0 mi ENE 10.4 mph - N/A   Overcast
9:55 PM 66.2 °F 64.4 °F 94% 30.09 in 10.0 mi ENE 8.1 mph - N/A   Overcast
10:15 PM 66.2 °F 62.6 °F 88% 30.10 in 10.0 mi ENE 10.4 mph - N/A   Overcast
10:35 PM 66.2 °F 62.6 °F 88% 30.10 in 10.0 mi ENE 10.4 mph - N/A   Overcast
10:55 PM 64.4 °F 62.6 °F 94% 30.11 in 10.0 mi ENE 12.7 mph 19.6 mph N/A   Overcast
11:15 PM 64.4 °F 62.6 °F 94% 30.11 in 10.0 mi ENE 12.7 mph - N/A   Overcast
11:35 PM 64.4 °F 62.6 °F 94% 30.11 in 10.0 mi ENE 10.4 mph - N/A   Overcast
11:55 PM 64.4 °F 62.6 °F 94% 30.11 in 10.0 mi East 10.4 mph - N/A   Overcast